Skip Page Navigation
NASA JPL Caltech
NASA Logo - Jet Propulsion Laboratory + View the NASA Portal
+ Center for Near-Earth Object Studies
JPL Home Earth Solar System Stars & Galaxies Technology
JPL Solar System Dynamics
BODIES ORBITS EPHEMERIDES TOOLS PHYSICAL DATA DISCOVERY FAQ SITE MAP
IMPORTANT: The SSD Announcement email list is now available. Major changes are coming in the near future, including possible hostname and/or URL changes. To be notified of such changes, subscribe to this email list.

Please visit this page for more details.


JPL Small-Body Database Browser
Search: [ help ]  
447641 (2006 VQ49)
Classification: Main-belt Asteroid          SPK-ID: 2447641
Ephemeris | Orbit Diagram | Orbital Elements | Mission Design | Physical Parameters | Discovery Circumstances | Close-Approach Data ]

[ show orbit diagram ]
Orbital Elements at Epoch 2458600.5 (2019-Apr-27.0) TDB
Reference: JPL 13 (heliocentric ecliptic J2000)
 Element Value Uncertainty (1-sigma)   Units 
e .2800205045018039 9.036e-08  
a 2.784399063965625 3.1709e-08 au
q 2.00471023333962 2.6658e-07 au
i 10.68193228873701 8.1817e-06 deg
node 55.34232047474497 4.011e-05 deg
peri 9.309200695084066 5.2222e-05 deg
M 243.6427391417756 2.9577e-05 deg
tp 2459149.012632211206
(2020-Oct-26.51263221)
0.00014685 TDB
period 1697.05393663946
4.65
2.8989e-05
7.937e-08
d
yr
n .2121323266323987 3.6237e-09 deg/d
Q 3.564087894591629 4.0588e-08 au
  Orbit Determination Parameters
   # obs. used (total)      152  
   data-arc span      3836 days (10.50 yr)  
   first obs. used      2006-09-28  
   last obs. used      2017-03-30  
   planetary ephem.      DE431  
   SB-pert. ephem.      SB431-N16  
   condition code      0  
   norm. resid. RMS      .69161  
   source      ORB  
   producer      Otto Matic  
   solution date      2017-Apr-09 11:37:28  

Additional Information
 Earth MOID = 1.01847 au 
 Jupiter MOID = 1.7951 au 
 T_jup = 3.249 
[ show covariance matrix ]

Ephemeris | Orbit Diagram | Orbital Elements | Mission Design | Physical Parameters | Discovery Circumstances | Close-Approach Data ]

Physical Parameter Table
Parameter Symbol Value Units Sigma Reference Notes
absolute magnitude H 17.1   n/a MPO361040  

447641 (2006 VQ49)          Discovered 2006-Sep-28 by Mt. Lemmon Survey at Mount Lemmon
Reference: Last Updated: 2015-10-28

[ show close-approach data ]
Ephemeris | Orbit Diagram | Orbital Elements | Mission Design | Physical Parameters | Discovery Circumstances | Close-Approach Data ]
ABOUT SSD CREDITS/AWARDS PRIVACY/COPYRIGHT GLOSSARY LINKS
FirstGov
(server date/time)  
NASA Home Page
Site Manager:   Ryan S. Park
Webmaster  Alan B. Chamberlin